Location: Saint-Palais-sur-Mer
(45.6429°N, 1.0859°W)
Time: 05:47:59
(UTC+01:00)

BlueWalker 3 - Visible Passes

Search period start: 05 December 2023 00:00
Search period end: 15 December 2023 00:00
Orbit: 489 x 503 km, 53.2° (Epoch: 04 December)

Date Brightness Start Highest point End Pass type
(mag) Time Alt. Az. Time Alt. Az. Time Alt. Az.
05 Dec 4.3 05:32:42 21° ESE 05:32:42 21° ESE 05:34:02 10° ESE visible
05 Dec 3.8 07:07:17 15° WSW 07:08:05 16° SW 07:10:28 10° S visible
06 Dec 3.9 06:45:56 16° SW 06:45:56 16° SW 06:47:50 10° S visible
07 Dec 4.4 06:24:38 12° SSW 06:24:38 12° SSW 06:25:11 10° S visible
13 Dec 4.0 19:27:51 10° S 19:29:12 16° SSE 19:29:12 16° SSE visible
14 Dec 3.6 19:05:04 10° S 19:07:43 20° SE 19:07:43 20° SE visible
14 Dec 5.2 20:42:06 10° WSW 20:42:17 11° WSW 20:42:17 11° WSW visible
